User: anonymous   Login
Location: Fort Wayne
(41.1310°N, 85.1290°W)
Time: 18:35:04
(UTC-04:00)
Language:

COSMOS 2428 - Orbit

View from above orbital plane
View from above orbital plane
View from above satellite
View from above satellite

Ground track
Ground track

The orbit data is extracted from the following two-line orbital elements,

1 31792U 07029A   16268.45352680 -.00000366  00000-0 -17246-3 0  9996
2 31792  70.9239 249.9844 0010936 313.4264  46.5946 14.12310106476556
Epoch (UTC): 24 September 2016 10:53:04
Eccentricity: 0.0010936
inclination: 70.9239°
perigee height: 843 km
apogee height: 859 km
right ascension of ascending node: 249.9844°
argument of perigee: 313.4264°
revolutions per day: 14.12310106
mean anomaly at epoch: 46.5946°
orbit number at epoch: 47655

The dashed part of the orbit path shows where the satellite is in the earth's shadow,  

DLR